KUG002 HLLB-DTTA

Flight info

Callsign KUG002
Flight time N/A
Altitude 36000
Route RIGEM1C RIGEM M622 INDOT/N0467F300 M622 GZO M978 DOBIX/N0386F180 M978 SONAK UM978 DIDON
Aircraft A346/H-SDE2E3FGHIJ3J4J5M1RWXY/LB1D1

Departure

Time N/A
Airport Benina International Airport (HLLB)

Arrival

Time 2026-05-07 23:10
Airport Tunis Carthage International Airport (DTTA)
Time Latitude Longitude Altitude Speed Heading
2026-05-07 22:30 35.64578 14.85501 39923 ft 424 kts 300°
2026-05-07 22:31 35.66348 14.82586 39921 ft 424 kts 300°
2026-05-07 22:31 35.69883 14.76761 39928 ft 424 kts 300°
2026-05-07 22:32 35.73416 14.70932 39939 ft 424 kts 299°
2026-05-07 22:32 35.76947 14.65100 39943 ft 424 kts 299°
2026-05-07 22:33 35.80473 14.59266 39946 ft 424 kts 299°
2026-05-07 22:33 35.84000 14.53420 39951 ft 424 kts 299°
2026-05-07 22:34 35.87523 14.47573 39934 ft 423 kts 299°
2026-05-07 22:34 35.91030 14.41744 39919 ft 421 kts 299°
2026-05-07 22:35 35.94520 14.35929 39913 ft 421 kts 299°
2026-05-07 22:35 35.97981 14.30100 39914 ft 419 kts 297°
2026-05-07 22:36 36.01066 14.24032 39917 ft 415 kts 293°
2026-05-07 22:36 36.03662 14.17700 39926 ft 410 kts 288°
2026-05-07 22:37 36.05753 14.11178 39918 ft 406 kts 284°
2026-05-07 22:37 36.07395 14.04520 39917 ft 404 kts 281°
2026-05-07 22:38 36.08952 13.97848 39913 ft 404 kts 281°
2026-05-07 22:38 36.10500 13.91157 39917 ft 404 kts 281°
2026-05-07 22:39 36.12039 13.84474 39938 ft 404 kts 281°
2026-05-07 22:39 36.13574 13.77792 39920 ft 403 kts 281°
2026-05-07 22:40 36.15091 13.71148 39919 ft 403 kts 281°
2026-05-07 22:40 36.16613 13.64469 39919 ft 403 kts 281°
2026-05-07 22:41 36.18133 13.57781 39921 ft 403 kts 281°
2026-05-07 22:41 36.19649 13.51088 39921 ft 403 kts 281°
2026-05-07 22:42 36.21169 13.44376 39919 ft 405 kts 280°
2026-05-07 22:42 36.22688 13.37626 39919 ft 406 kts 280°
2026-05-07 22:43 36.24205 13.30874 39921 ft 406 kts 280°
2026-05-07 22:43 36.25720 13.24114 39932 ft 407 kts 279°
2026-05-07 22:44 36.27232 13.17334 39929 ft 408 kts 279°
2026-05-07 22:44 36.28739 13.10554 39937 ft 407 kts 279°
2026-05-07 22:45 36.29988 13.04923 39931 ft 406 kts 279°
2026-05-07 22:45 36.31482 12.98158 39927 ft 406 kts 279°
2026-05-07 22:46 36.32973 12.91392 39929 ft 406 kts 279°
2026-05-07 22:46 36.34462 12.84618 39930 ft 406 kts 279°
2026-05-07 22:47 36.35945 12.77849 39933 ft 406 kts 279°
2026-05-07 22:47 36.37426 12.71089 39933 ft 405 kts 279°
2026-05-07 22:48 36.38887 12.64374 39934 ft 404 kts 279°
2026-05-07 22:48 36.40353 12.57621 39935 ft 404 kts 279°
2026-05-07 22:49 36.41815 12.50867 39942 ft 404 kts 279°
2026-05-07 22:49 36.43273 12.44112 39933 ft 404 kts 279°
2026-05-07 22:50 36.44733 12.37351 39949 ft 406 kts 278°
2026-05-07 22:50 36.46190 12.30560 39924 ft 404 kts 278°
2026-05-07 22:50 36.46910 12.27204 39594 ft 400 kts 278°
2026-05-07 22:51 36.47629 12.23850 38904 ft 402 kts 277°
2026-05-07 22:51 36.48349 12.20481 38131 ft 402 kts 277°
2026-05-07 22:51 36.49067 12.17112 37370 ft 402 kts 277°
2026-05-07 22:51 36.49683 12.13730 36525 ft 400 kts 273°
2026-05-07 22:52 36.50163 12.10312 35675 ft 402 kts 272°
2026-05-07 22:52 36.50628 12.06854 34830 ft 405 kts 271°
2026-05-07 22:52 36.51094 12.03385 34028 ft 408 kts 271°
2026-05-07 22:52 36.51564 11.99893 33136 ft 409 kts 271°
2026-05-07 22:53 36.52031 11.96391 32170 ft 413 kts 271°
2026-05-07 22:53 36.52504 11.92827 31048 ft 421 kts 272°
2026-05-07 22:53 36.52987 11.89189 29833 ft 432 kts 273°
2026-05-07 22:53 36.53480 11.85498 28377 ft 442 kts 274°
2026-05-07 22:54 36.53993 11.81706 27442 ft 443 kts 274°
2026-05-07 22:54 36.54508 11.77963 27047 ft 432 kts 274°
2026-05-07 22:54 36.55008 11.74339 26680 ft 420 kts 274°
2026-05-07 22:54 36.55494 11.70773 25999 ft 416 kts 274°
2026-05-07 22:55 36.55970 11.67234 25336 ft 413 kts 275°
2026-05-07 22:55 36.56440 11.63708 24687 ft 411 kts 275°
2026-05-07 22:55 36.56909 11.60202 24023 ft 410 kts 275°
2026-05-07 22:55 36.57376 11.56708 23430 ft 407 kts 275°
2026-05-07 22:56 36.57840 11.53238 22753 ft 404 kts 275°
2026-05-07 22:56 36.58299 11.49807 22123 ft 400 kts 275°
2026-05-07 22:56 36.58752 11.46410 21499 ft 396 kts 275°
2026-05-07 22:56 36.59200 11.43036 20870 ft 392 kts 275°
2026-05-07 22:57 36.59643 11.39692 20273 ft 389 kts 275°
2026-05-07 22:57 36.60073 11.36429 19693 ft 385 kts 275°
2026-05-07 22:57 36.60505 11.33143 19101 ft 382 kts 275°
2026-05-07 22:57 36.60933 11.29883 18482 ft 381 kts 275°
2026-05-07 22:58 36.61356 11.26635 17800 ft 379 kts 275°
2026-05-07 22:58 36.61778 11.23392 17144 ft 377 kts 275°
2026-05-07 22:58 36.62197 11.20181 16555 ft 373 kts 275°
2026-05-07 22:58 36.62609 11.17009 15971 ft 369 kts 275°
2026-05-07 22:59 36.63018 11.13861 15440 ft 365 kts 275°
2026-05-07 22:59 36.63417 11.10797 15239 ft 352 kts 275°
2026-05-07 22:59 36.63802 11.07835 15028 ft 340 kts 275°
2026-05-07 22:59 36.64174 11.04971 14816 ft 329 kts 275°
2026-05-07 23:00 36.64531 11.02205 14628 ft 318 kts 275°
2026-05-07 23:00 36.64877 10.99524 14438 ft 308 kts 275°
2026-05-07 23:00 36.65211 10.96912 14059 ft 304 kts 275°
2026-05-07 23:00 36.65541 10.94315 13630 ft 303 kts 275°
2026-05-07 23:01 36.65869 10.91728 13150 ft 301 kts 275°
2026-05-07 23:01 36.66196 10.89154 12691 ft 299 kts 275°
2026-05-07 23:01 36.66521 10.86595 12226 ft 297 kts 275°
2026-05-07 23:01 36.66843 10.84057 11781 ft 296 kts 275°
2026-05-07 23:02 36.67164 10.81528 11343 ft 294 kts 275°
2026-05-07 23:02 36.67482 10.79015 10896 ft 293 kts 275°
2026-05-07 23:02 36.67795 10.76543 10451 ft 291 kts 275°
2026-05-07 23:02 36.68108 10.74061 9682 ft 289 kts 276°
2026-05-07 23:03 36.68421 10.71581 8710 ft 289 kts 275°
2026-05-07 23:03 36.68736 10.69100 7782 ft 289 kts 275°
2026-05-07 23:03 36.69049 10.66627 6871 ft 288 kts 275°
2026-05-07 23:03 36.69359 10.64159 5956 ft 287 kts 275°
2026-05-07 23:04 36.69664 10.61695 5047 ft 288 kts 275°
2026-05-07 23:04 36.69967 10.59247 4402 ft 281 kts 275°
2026-05-07 23:04 36.70260 10.56897 4070 ft 265 kts 275°
2026-05-07 23:04 36.70543 10.54661 4028 ft 260 kts 275°
2026-05-07 23:05 36.70820 10.52432 4010 ft 260 kts 275°
2026-05-07 23:05 36.71161 10.50246 3888 ft 254 kts 287°
2026-05-07 23:05 36.72186 10.48464 3425 ft 257 kts 321°
2026-05-07 23:05 36.73776 10.47482 3088 ft 252 kts 338°
2026-05-07 23:06 36.75381 10.46711 2762 ft 243 kts 338°
2026-05-07 23:06 36.76916 10.45920 2468 ft 235 kts 328°
2026-05-07 23:06 36.78043 10.44546 2220 ft 225 kts 296°
2026-05-07 23:06 36.78671 10.42787 2230 ft 225 kts 288°
2026-05-07 23:07 36.79197 10.40943 2230 ft 225 kts 287°
2026-05-07 23:07 36.79729 10.39103 2251 ft 225 kts 288°
2026-05-07 23:07 36.80289 10.37270 2230 ft 226 kts 289°
2026-05-07 23:07 36.80889 10.35445 1994 ft 226 kts 291°
2026-05-07 23:08 36.81500 10.33685 1872 ft 212 kts 291°
2026-05-07 23:08 36.82045 10.32079 1732 ft 191 kts 289°
2026-05-07 23:08 36.82516 10.30581 1399 ft 180 kts 288°
2026-05-07 23:08 36.82955 10.29153 1057 ft 173 kts 290°
2026-05-07 23:09 36.83428 10.27779 671 ft 172 kts 292°
2026-05-07 23:09 36.83901 10.26429 388 ft 165 kts 292°
2026-05-07 23:09 36.84311 10.25159 170 ft 152 kts 290°
2026-05-07 23:09 36.84686 10.23997 41 ft 121 kts 291°
2026-05-07 23:10 36.84927 10.23247 37 ft 85 kts 292°
2026-05-07 23:10 36.85166 10.22516 45 ft 52 kts 292°
2026-05-07 23:10 36.85225 10.22215 42 ft 26 kts 224°
2026-05-07 23:10 36.85087 10.22173 39 ft 17 kts 138°
2026-05-07 23:11 36.85032 10.22297 39 ft 14 kts 112°
2026-05-07 23:11 36.85010 10.22354 39 ft 0 kts 127°
2026-05-07 23:11 36.85005 10.22359 39 ft 2 kts 149°
2026-05-07 23:11 36.84986 10.22363 39 ft 5 kts 172°
2026-05-07 23:12 36.84941 10.22359 39 ft 8 kts 196°
2026-05-07 23:12 36.84894 10.22315 39 ft 9 kts 242°
2026-05-07 23:12 36.84888 10.22227 39 ft 12 kts 275°
2026-05-07 23:12 36.84889 10.22207 39 ft 0 kts 271°
2026-05-07 23:13 36.84890 10.22195 39 ft 3 kts 274°
2026-05-07 23:13 36.84893 10.22151 39 ft 7 kts 276°
2026-05-07 23:13 36.84905 10.22077 39 ft 10 kts 287°
2026-05-07 23:13 36.84911 10.22055 39 ft 1 kts 287°
2026-05-07 23:14 36.84910 10.22038 39 ft 3 kts 252°
2026-05-07 23:14 36.84901 10.22025 39 ft 0 kts 210°
2026-05-07 23:14 36.84899 10.22024 39 ft 0 kts 204°
2026-05-07 23:15 36.84898 10.22023 39 ft 0 kts 197°
2026-05-07 23:15 36.84887 10.22031 38 ft 4 kts 119°
2026-05-07 23:15 36.84901 10.22053 39 ft 7 kts 45°
2026-05-07 23:16 36.84911 10.22179 37 ft 18 kts 111°
2026-05-07 23:16 36.84883 10.22269 35 ft 17 kts 110°
2026-05-07 23:16 36.84802 10.22340 39 ft 21 kts 184°
2026-05-07 23:16 36.84627 10.22291 39 ft 27 kts 193°
2026-05-07 23:17 36.84499 10.22245 39 ft 15 kts 230°
2026-05-07 23:17 36.84530 10.22134 39 ft 18 kts 317°
2026-05-07 23:17 36.84578 10.22063 39 ft 6 kts 298°
2026-05-07 23:17 36.84592 10.22028 39 ft 0 kts 297°